Clarksburg, WV

4:39 PM EDT on October 19, 2019 (GMT -0400)
Benedum

Weather History for KCKB - August, 2019

Change the Weather History Date:

Thursday, August 15, 2019

  Actual Average Record
Temperature  
Mean Temperature 78 °F -  
Max Temperature 89 °F 84 °F 97 °F (1947)
Min Temperature 66 °F 61 °F 43 °F (1964)
Cooling Degree Days 12    
Growing Degree Days 28 (Base 50)    
Moisture  
Dew Point 65 °F    
Average Humidity 79    
Maximum Humidity 94    
Minimum Humidity 45    
Precipitation  
Precipitation 0.00 in - - ()
Sea Level Pressure  
Sea Level Pressure 29.94 in    
Wind  
Wind Speed 1 mph ()    
Max Wind Speed 10 mph    
Max Gust Speed -    
Visibility 5.1 miles    
Events Fog    
Averages and records for this station are not official NWS values.
T = Trace of Precipitation, MM = Missing Value Source: Averaged Metar Reports

Daily Weather History Graph

Daily Weather History Graph

Search for Another Location

Airport or City:

Astronomy

Aug. 15, 2019 Rise Set
Actual Time 6:33 AM EDT 8:16 PM EDT
Civil Twilight 6:04 AM EDT 8:45 PM EDT
Nautical Twilight 5:30 AM EDT 9:19 PM EDT
Astronomical Twilight 4:53 AM EDT 9:56 PM EDT
Moon 8:44 PM EDT (8/15) 6:26 AM EDT (8/15)
Length of Visible Light 14h 40m
Length of Day
13h 43m
Full, 100% of the Moon is Illuminated
Aug 15
Full
Aug 23
Last Quarter
Aug 30
New
Sep 5
First Quarter
Sep 14
Full

Hourly Weather History & Observations

Time (EDT) Temp. Heat Index Dew Point Humidity Pressure Visibility Wind Dir Wind Speed Gust Speed Precip Events Conditions
12:53 AM 68.0 °F - 64.0 °F 87% 29.94 in 7.0 mi Calm Calm - N/A   Clear
1:53 AM 66.9 °F - 63.0 °F 87% 29.94 in 7.0 mi Calm Calm - N/A   Clear
2:07 AM 66.9 °F - 64.0 °F 90% 29.98 in 1.8 mi Calm Calm - N/A   Clear
2:18 AM 68.0 °F - 64.9 °F 90% 29.97 in 0.8 mi Calm Calm - N/A   Clear
2:27 AM 66.9 °F - 64.0 °F 90% 29.97 in 2.0 mi Calm Calm - N/A   Clear
2:37 AM 66.0 °F - 63.0 °F 90% 29.97 in 1.0 mi Calm Calm - N/A   Clear
2:44 AM 66.9 °F - 64.0 °F 90% 29.96 in 3.0 mi Calm Calm - N/A   Clear
2:49 AM 66.2 °F - 64.4 °F 94% 29.96 in 2.5 mi Calm Calm - N/A   Partly Cloudy
2:53 AM 66.9 °F - 64.0 °F 90% 29.92 in 0.8 mi Calm Calm - N/A   Mist
3:01 AM 66.9 °F - 64.0 °F 90% 29.96 in 1.2 mi Calm Calm - N/A   Partly Cloudy
3:03 AM 66.9 °F - 64.0 °F 90% 29.96 in 3.0 mi Calm Calm - N/A   Partly Cloudy
3:15 AM 66.0 °F - 63.0 °F 90% 29.96 in 1.8 mi Calm Calm - N/A   Partly Cloudy
3:21 AM 66.0 °F - 63.0 °F 90% 29.96 in 0.8 mi Calm Calm - N/A   Mist
3:44 AM 66.0 °F - 63.0 °F 90% 29.96 in 1.2 mi Calm Calm - N/A   Partly Cloudy
3:47 AM 66.2 °F - 62.6 °F 88% 29.96 in 0.8 mi Calm Calm - N/A   Mist
3:53 AM 66.9 °F - 64.0 °F 90% 29.91 in 0.5 mi Calm Calm - N/A Fog Fog
4:33 AM 66.0 °F - 63.0 °F 90% 29.95 in 0.2 mi Calm Calm - N/A Fog Fog
4:53 AM 66.0 °F - 63.0 °F 90% 29.91 in 0.2 mi Calm Calm - N/A Fog Fog
5:53 AM 66.9 °F - 64.0 °F 90% 29.92 in 0.2 mi Calm Calm - N/A Fog Fog
6:53 AM 68.0 °F - 64.9 °F 90% 29.93 in 0.2 mi SSE 3.5 mph - N/A Fog Fog
7:53 AM 68.0 °F - 66.0 °F 93% 29.95 in 0.2 mi Calm Calm - N/A Fog Fog
8:00 AM 69.1 °F - 66.0 °F 90% 29.99 in 0.2 mi Calm Calm - N/A Fog Fog
8:22 AM 69.1 °F - 66.0 °F 90% 29.99 in 2.0 mi Calm Calm - N/A   Overcast
8:31 AM 70.0 °F - 66.0 °F 87% 29.99 in 5.0 mi Calm Calm - N/A   Mostly Cloudy
8:38 AM 70.0 °F - 66.9 °F 90% 29.99 in 6.0 mi Calm Calm - N/A   Scattered Clouds
8:53 AM 71.1 °F - 66.9 °F 87% 29.96 in 7.0 mi Calm Calm - N/A   Partly Cloudy
9:04 AM 71.1 °F - 68.0 °F 90% 30.00 in 9.0 mi Calm Calm - N/A   Partly Cloudy
9:53 AM 77.0 °F - 69.1 °F 76% 29.95 in 10.0 mi Calm Calm - N/A   Clear
10:53 AM 82.0 °F 85.5 °F 69.1 °F 65% 29.96 in 10.0 mi Calm Calm - N/A   Clear
11:53 AM 84.0 °F 87.0 °F 68.0 °F 58% 29.94 in 10.0 mi Variable 5.8 mph - N/A   Partly Cloudy
12:53 PM 86.0 °F 88.2 °F 66.0 °F 51% 29.93 in 10.0 mi WSW 6.9 mph - N/A   Scattered Clouds
1:53 PM 86.0 °F 87.6 °F 64.9 °F 49% 29.91 in 10.0 mi South 6.9 mph - N/A   Clear
2:53 PM 88.0 °F 89.6 °F 64.9 °F 46% 29.89 in 10.0 mi West 10.4 mph - N/A   Clear
3:53 PM 89.1 °F 91.0 °F 64.9 °F 45% 29.86 in 10.0 mi WNW 10.4 mph - N/A   Partly Cloudy
4:53 PM 87.1 °F 88.9 °F 64.9 °F 48% 29.87 in 10.0 mi West 5.8 mph - N/A   Mostly Cloudy
5:53 PM 88.0 °F 89.3 °F 64.0 °F 45% 29.87 in 10.0 mi NW 8.1 mph - N/A   Scattered Clouds
6:53 PM 84.0 °F 85.8 °F 64.9 °F 53% 29.88 in 10.0 mi West 5.8 mph - N/A   Clear
7:53 PM 81.0 °F 83.3 °F 66.9 °F 62% 29.89 in 10.0 mi NW 6.9 mph - N/A   Partly Cloudy
8:53 PM 79.0 °F - 66.9 °F 66% 29.91 in 10.0 mi WNW 3.5 mph - N/A   Partly Cloudy
9:53 PM 75.0 °F - 68.0 °F 79% 29.92 in 10.0 mi Calm Calm - N/A   Scattered Clouds
10:53 PM 73.9 °F - 68.0 °F 82% 29.94 in 10.0 mi Calm Calm - N/A   Scattered Clouds
11:53 PM 70.0 °F - 66.9 °F 90% 29.95 in 9.0 mi Calm Calm - N/A   Scattered Clouds